PST,Max TemperatureF,Mean TemperatureF,Min TemperatureF,Max Dew PointF,MeanDew PointF,Min DewpointF,Max Humidity, Mean Humidity, Min Humidity, Max Sea Level PressureIn, Mean Sea Level PressureIn, Min Sea Level PressureIn, Max VisibilityMiles, Mean VisibilityMiles, Min VisibilityMiles, Max Wind SpeedMPH, Mean Wind SpeedMPH, Max Gust SpeedMPH,PrecipitationIn, CloudCover, Events, WindDirDegrees
2013-2-1,75,61,46,50,44,37,89,60,31,30.20,30.16,30.14,10,10,6,22,3,25,0.00,0,,283
2013-2-2,75,63,51,54,47,43,83,58,33,30.22,30.19,30.15,10,10,10,17,3,,T,2,,340
2013-2-3,71,59,47,52,48,43,89,69,48,30.16,30.10,30.05,10,9,5,13,4,14,0.00,0,,299
2013-2-4,65,56,46,51,47,42,96,78,60,30.13,30.07,30.02,10,6,0,13,2,15,0.00,2,Fog,242
2013-2-5,58,54,49,50,48,43,89,81,72,30.13,30.06,30.00,10,6,2,9,3,12,0.00,8,,106
2013-2-6,64,54,44,49,46,42,93,73,52,30.14,30.08,30.03,10,7,4,12,3,16,0.00,3,,257
2013-2-7,61,51,40,48,43,37,89,72,55,30.17,30.09,29.98,10,8,3,16,4,23,0.00,3,,261
2013-2-8,56,49,42,40,38,36,76,64,51,30.00,29.96,29.88,10,10,10,24,11,30,0.00,2,,269
2013-2-9,60,47,34,41,35,30,89,63,36,30.12,30.05,29.98,10,10,10,17,5,20,0.00,0,,268
2013-2-10,59,48,37,43,38,33,85,68,51,30.13,30.09,30.05,10,10,9,13,4,16,0.00,2,,255
2013-2-11,67,52,36,42,34,15,85,50,14,30.27,30.17,30.10,10,10,10,21,5,26,0.00,0,,82
2013-2-12,64,50,35,38,32,25,79,53,27,30.38,30.31,30.28,10,10,10,12,4,15,0.00,0,,260
2013-2-13,64,50,36,48,38,30,80,57,34,30.29,30.23,30.18,10,10,10,14,3,16,0.00,0,,216
2013-2-14,70,54,38,48,42,33,82,61,40,30.23,30.16,30.10,10,10,9,14,4,16,0.00,0,,186
2013-2-15,85,64,43,36,25,16,66,37,8,30.22,30.18,30.14,10,10,10,29,13,35,0.00,0,,63
2013-2-16,81,64,47,34,24,16,56,33,9,30.17,30.10,30.00,10,10,10,14,8,17,0.00,0,,67
2013-2-17,64,51,38,50,40,29,77,57,36,30.05,29.99,29.93,10,9,7,14,4,17,0.00,3,,227
2013-2-18,62,55,47,48,46,43,86,70,53,30.09,30.03,29.98,10,9,5,15,6,18,0.00,4,,183
2013-2-19,60,54,48,47,44,35,77,63,49,30.00,29.89,29.76,10,9,2,25,8,30,0.13,7,Rain,263
2013-2-20,66,54,42,34,30,24,61,42,22,30.03,29.87,29.76,10,10,10,20,9,32,0.00,0,,291
2013-2-21,61,49,36,44,36,29,77,58,39,30.13,30.06,30.01,10,10,10,15,4,18,0.00,0,,243
2013-2-22,64,51,37,46,36,30,77,56,34,30.22,30.18,30.13,10,10,10,14,4,17,0.00,0,,223
2013-2-23,64,51,37,48,39,28,79,60,41,30.19,30.06,29.94,10,10,8,14,5,20,0.00,0,,25
2013-2-24,71,58,44,33,19,4,58,33,7,30.23,30.14,30.06,10,10,10,31,15,41,0.00,0,,53
2013-2-25,67,53,39,45,29,18,77,48,18,30.25,30.18,30.11,10,10,10,14,5,17,0.00,0,,168
2013-2-26,69,53,36,43,35,29,76,49,22,30.15,30.07,30.03,10,10,10,14,4,17,0.00,0,,257
2013-2-27,78,60,42,32,18,9,65,36,7,30.31,30.23,30.15,10,10,10,25,9,31,0.00,0,,75
2013-2-28,80,61,41,43,27,15,57,33,9,30.35,30.31,30.27,10,10,10,18,6,22,0.00,0,,13